GFSNE_sfc_dewp_057.txt.gz
Dewpoint
32 33 33 34 35 35 34 34 34 30 26 26 24 23 23 24 24 24 25 26 28 28 28 28 28 29 29 30 30 31 31 32 33 33 34 34 35 37
33 33 33 33 33 33 32 33 35 33 26 24 21 21 21 19 21 22 23 26 26 27 27 28 29 31 30 30 30 30 31 31 31 32 32 33 36 37
33 33 33 32 31 30 29 26 23 22 20 19 21 20 20 20 20 22 24 23 24 27 28 29 29 29 29 29 30 31 30 30 30 31 33 33 35 37
33 32 31 30 28 26 24 21 20 19 19 17 18 19 19 19 20 21 21 22 24 26 26 26 25 26 26 27 29 31 31 32 32 31 31 33 34 35
32 31 31 30 29 24 21 20 19 18 19 19 19 19 19 20 20 22 22 24 22 23 23 23 25 26 27 28 29 29 28 32 34 35 34 34 34 34
30 27 26 26 24 20 18 18 17 18 19 19 19 17 19 20 21 21 22 20 19 18 22 24 25 27 28 28 28 29 29 29 32 33 35 36 36 36
27 25 25 25 26 24 19 18 19 19 19 18 17 16 18 18 19 22 19 18 19 20 20 21 23 23 24 27 28 29 30 30 30 33 34 34 36 36
24 23 24 27 26 29 28 25 22 19 18 17 17 17 17 19 20 18 18 18 17 21 22 22 24 23 24 25 28 29 30 31 31 32 33 35 36 35
23 23 24 22 26 25 28 25 23 22 22 19 17 18 17 17 17 19 20 21 21 22 23 21 23 23 24 24 28 29 30 32 31 33 34 33 34 33
23 24 25 23 23 22 20 20 19 19 18 16 19 19 19 20 21 22 24 24 23 22 23 20 22 22 24 25 28 29 32 33 33 33 34 34 34 33
24 25 27 26 26 27 22 21 20 19 17 19 20 21 22 22 22 20 19 20 17 18 21 22 21 22 23 24 26 29 31 32 33 32 33 34 35 34
27 28 30 27 25 26 22 20 19 19 15 16 19 19 20 20 21 21 20 18 18 17 21 21 21 24 21 22 23 26 26 31 32 34 33 34 35 31
28 27 26 27 27 26 25 21 19 20 19 19 20 19 19 19 19 20 21 20 18 19 20 24 23 25 25 24 23 25 25 29 32 32 32 33 35 33
28 28 27 28 28 27 25 26 26 23 21 20 18 18 17 17 18 20 21 21 22 22 23 23 24 24 25 24 22 24 25 30 32 31 28 29 32 33
30 30 29 28 30 27 28 28 25 22 20 16 16 16 16 17 19 21 20 20 21 23 23 22 24 23 24 24 25 26 26 26 28 31 28 28 30 24
31 31 29 28 27 26 24 26 23 21 20 19 16 15 16 17 17 19 18 18 18 17 20 22 22 23 23 25 27 26 26 26 24 26 29 25 25 28
28 29 26 26 25 24 23 23 22 20 19 16 14 14 15 17 15 16 18 18 14 15 17 19 20 22 23 27 25 24 25 26 30 29 25 25 27 30
28 27 24 24 24 23 22 22 20 18 20 18 14 15 15 13 13 15 16 12 12 14 16 17 18 17 20 22 29 25 23 24 28 29 26 22 23 26
28 26 23 24 23 22 22 21 20 20 20 19 16 14 14 14 12 13 12 12 12 14 15 17 17 16 15 4 21 28 24 24 24 27 28 26 25 28
29 27 23 24 23 22 21 20 21 20 18 17 13 13 11 10 8 12 12 4 8 13 15 14 14 15 16 13 17 20 28 23 22 22 23 23 25 29
27 28 27 24 24 23 22 21 20 19 14 10 14 13 8 10 7 8 7 7 6 14 13 11 11 16 20 23 14 17 22 26 25 24 24 22 23 23
28 27 27 27 25 24 23 21 19 17 15 14 13 14 10 8 8 5 -1 2 9 8 11 13 13 15 19 19 19 20 21 19 22 25 26 27 23 20
29 27 27 27 26 25 24 22 21 19 19 17 16 14 10 6 9 7 2 6 10 9 9 9 11 13 14 17 17 19 20 20 22 20 19 24 26 28

GFSNE_sfc_dewp_063.txt.gz
Dewpoint
39 38 36 34 35 34 34 34 34 30 23 26 29 31 28 27 24 25 24 23 25 27 27 28 29 30 30 30 31 31 32 33 34 34 34 34 35 35
36 37 35 34 34 34 34 34 34 32 29 27 27 28 26 19 21 24 22 24 24 26 27 28 29 29 29 30 30 31 31 31 32 33 33 35 35 35
36 35 35 35 34 34 34 34 32 31 29 26 25 23 23 22 21 21 19 20 21 24 27 28 27 27 27 27 28 28 29 30 30 31 32 33 33 35
35 35 34 30 34 34 32 32 30 29 26 23 22 20 21 23 22 20 15 16 19 21 26 25 26 25 26 27 27 28 28 28 29 30 30 32 33 33
34 34 32 32 32 32 32 30 28 25 24 21 20 20 21 20 19 17 16 19 17 21 22 22 23 26 27 27 28 29 29 30 30 30 30 31 31 31
35 34 32 32 32 31 28 28 27 25 22 20 19 19 19 19 18 14 14 15 15 15 19 21 24 25 26 26 27 28 29 29 29 30 32 32 32 32
34 31 32 32 32 30 26 26 25 22 20 19 19 19 18 17 15 13 14 14 16 18 18 18 18 19 21 23 24 26 27 29 30 30 31 32 33 33
31 30 30 31 30 32 32 30 25 23 22 21 20 19 18 19 17 14 15 15 14 18 18 17 17 19 19 21 24 26 28 29 29 30 31 33 33 33
32 30 28 26 29 27 28 29 30 28 25 25 25 22 23 20 14 15 16 16 16 17 18 17 18 20 22 19 25 27 28 29 30 31 34 34 34 34
33 32 31 30 29 28 27 25 25 25 25 23 24 23 22 18 16 19 20 20 19 17 17 19 20 23 23 24 27 28 29 30 31 31 31 33 34 34
32 32 31 30 30 30 28 27 25 26 25 26 25 24 24 22 24 23 21 19 20 15 17 20 20 21 23 26 27 26 28 29 29 29 30 31 32 32
32 31 31 30 30 29 31 31 29 26 23 21 21 21 21 21 23 21 20 20 19 17 16 17 16 19 21 24 26 28 29 29 30 30 30 31 32 34
32 31 32 30 31 31 31 32 32 28 25 22 21 19 17 19 19 20 20 20 19 17 16 19 18 17 19 20 23 25 28 31 32 31 31 32 32 33
32 33 33 31 31 32 31 31 30 28 28 26 25 23 22 22 21 20 21 21 21 19 20 24 22 19 19 19 19 23 27 31 32 31 31 32 33 33
32 31 31 32 32 31 31 31 30 30 29 27 26 23 23 22 21 21 20 20 19 21 18 21 21 20 21 21 20 22 24 27 30 33 32 32 32 34
30 31 30 32 32 32 31 32 32 32 30 27 26 24 24 24 23 22 21 21 20 20 20 20 21 20 20 19 20 22 23 27 29 31 32 35 33 32
30 31 31 31 31 31 30 30 30 31 29 29 27 26 24 23 23 23 21 20 19 18 17 17 18 19 19 20 21 21 24 26 30 30 31 29 32 30
29 30 30 32 31 30 30 29 28 28 28 29 28 26 25 24 23 22 21 21 19 17 17 17 17 18 19 22 24 23 26 26 29 27 30 28 27 29
29 30 32 31 31 29 29 27 28 28 28 28 27 26 26 25 24 23 22 21 19 17 17 17 17 16 16 19 21 25 25 24 26 26 27 29 28 29
19 19 28 31 31 30 28 27 27 28 28 27 27 26 27 25 23 22 21 21 18 16 16 16 15 13 17 19 20 24 23 26 25 25 26 27 30 28
15 16 19 20 25 30 30 30 30 29 28 28 27 26 26 23 24 22 21 18 17 15 14 15 15 15 16 21 22 24 29 26 26 25 25 26 27 28
13 12 15 17 19 21 30 31 30 28 28 26 27 27 26 25 24 22 22 21 17 17 16 16 14 13 18 19 19 22 23 26 26 23 24 26 26 24
12 11 12 14 16 18 19 22 28 28 27 26 26 26 25 24 24 23 23 19 18 17 16 15 12 13 14 16 19 20 22 23 24 25 26 23 25 27

GFSNE_sfc_dewp_066.txt.gz
Dewpoint
39 38 35 32 34 33 32 30 31 31 25 25 25 28 30 30 30 28 27 29 27 27 27 28 29 30 31 31 32 32 32 33 34 34 34 35 36 36
35 36 35 34 33 33 31 30 30 29 27 26 25 26 28 24 27 26 25 26 27 28 25 26 29 30 30 30 30 30 31 31 32 32 32 33 34 35
36 35 35 35 33 32 31 31 30 29 26 25 25 26 27 27 25 25 24 23 20 27 27 25 27 28 27 28 27 28 29 29 30 30 31 32 34 35
34 35 34 30 33 33 31 32 30 29 26 25 25 24 25 25 26 25 20 14 17 22 25 25 26 25 26 26 27 28 28 28 29 30 30 31 31 33
34 34 33 33 32 31 31 30 28 25 26 25 23 24 23 23 23 22 21 19 14 22 25 26 23 23 25 26 27 28 28 28 29 30 30 31 31 31
34 34 33 32 32 31 29 29 27 27 26 25 23 22 21 22 21 18 17 14 14 11 20 24 24 23 25 26 26 26 27 28 29 30 31 32 32 31
34 32 34 34 35 33 26 27 27 26 24 22 21 20 20 20 19 19 16 14 16 18 18 18 19 19 20 25 25 26 26 27 28 29 30 32 32 32
32 31 31 34 33 33 33 33 30 28 25 23 22 22 23 23 22 19 16 13 14 18 19 19 19 19 17 20 28 26 26 28 29 30 30 31 33 34
32 31 29 26 31 30 31 32 32 32 29 28 28 26 28 26 23 20 17 15 16 18 19 18 20 20 20 17 28 28 28 29 30 31 30 32 33 34
31 32 31 31 31 31 31 29 28 28 28 27 27 26 26 27 22 20 20 21 21 19 19 21 21 21 22 22 27 29 28 29 29 30 30 32 32 32
29 30 29 29 30 34 32 31 29 28 28 30 30 30 27 24 24 24 23 22 23 17 18 20 21 21 21 23 25 29 29 31 31 31 31 31 32 32
32 30 31 31 30 32 34 33 33 31 27 29 27 26 27 26 26 24 22 21 21 19 17 17 16 18 20 22 26 25 28 28 30 31 32 32 31 32
26 26 28 30 32 32 32 35 34 32 31 31 29 24 23 22 20 22 22 22 21 18 19 20 19 18 19 19 21 22 26 31 32 32 32 32 32 32
27 29 29 30 31 31 32 33 33 33 35 35 28 26 26 25 21 20 22 23 22 20 21 25 23 20 20 20 18 20 28 31 32 32 33 32 32 34
27 28 28 29 30 30 30 32 32 32 32 32 30 27 26 26 24 24 23 22 22 22 19 22 23 21 21 20 19 20 23 25 29 33 32 32 33 32
25 29 30 28 28 29 31 32 33 33 33 32 30 28 27 29 25 24 24 23 23 23 21 22 22 21 21 19 19 19 21 26 28 30 31 33 34 32
25 29 31 29 29 30 31 32 33 33 32 33 32 32 31 28 27 26 25 22 22 20 19 19 20 21 21 20 21 20 24 26 29 29 28 29 29 31
25 26 27 31 33 29 30 31 33 32 32 33 32 30 30 29 26 27 25 24 22 20 19 19 18 20 19 22 25 22 26 28 29 27 28 28 27 29
21 21 24 25 27 27 31 32 32 32 30 29 30 31 31 30 29 27 27 23 22 20 19 19 19 19 15 20 25 25 24 23 25 27 26 27 27 29
17 18 19 20 22 22 24 31 32 33 31 28 30 31 32 29 29 26 26 24 22 19 17 16 17 17 16 20 22 26 26 27 27 25 25 27 29 30
14 14 16 16 17 20 23 26 29 33 33 32 31 30 31 29 28 26 24 24 22 18 15 15 17 18 14 21 23 27 29 27 27 26 25 25 26 29
14 13 13 15 17 18 21 22 25 27 32 31 31 31 31 30 28 26 25 25 20 20 17 16 16 14 15 17 18 24 25 27 29 25 23 25 26 23
13 13 14 14 15 16 16 18 19 23 25 30 30 30 31 29 27 28 25 22 21 19 17 16 15 13 13 13 17 19 23 24 24 27 29 23 23 25

GFSNE_sfc_dewp_069.txt.gz
Dewpoint
43 43 40 36 34 33 33 31 30 31 26 27 26 30 28 29 32 31 31 33 35 32 31 28 28 29 31 31 32 32 33 33 33 33 34 35 35 35
41 40 39 36 34 34 32 31 30 29 29 26 25 28 29 23 30 29 29 34 32 32 32 31 27 27 28 30 31 31 31 31 31 32 32 33 34 35
41 40 37 36 34 33 32 31 29 29 28 28 26 29 32 32 28 28 29 28 27 32 33 32 28 26 27 28 28 28 28 29 30 30 30 31 32 32
40 39 36 32 35 34 33 32 32 32 30 29 29 28 30 31 31 30 24 19 23 25 31 30 27 27 27 26 26 27 28 29 29 29 30 30 31 32
38 36 34 34 34 34 32 32 31 26 30 29 28 28 28 28 27 28 26 28 19 27 29 29 29 27 27 26 27 28 28 28 28 29 29 30 31 31
38 36 34 33 33 34 32 33 30 30 30 28 27 27 27 27 26 23 25 24 22 14 21 25 27 28 29 29 29 28 29 28 28 28 31 31 32 31
36 33 35 35 35 35 31 32 32 29 28 27 26 25 24 24 23 24 24 25 23 21 19 20 21 20 23 28 28 31 29 26 27 28 29 31 31 31
33 32 31 34 32 34 34 33 32 32 30 29 27 26 26 25 25 25 27 24 20 20 20 21 21 20 21 22 28 28 27 27 29 30 30 30 32 32
31 32 29 25 32 30 32 33 33 32 30 31 30 28 29 29 29 31 28 23 22 19 21 21 24 24 22 17 28 29 30 29 29 30 31 32 33 33
29 30 31 32 33 33 32 32 33 35 34 31 30 30 29 28 29 30 27 24 22 21 23 24 24 24 26 25 28 29 30 31 30 32 32 32 32 32
30 30 29 30 31 33 32 34 32 31 30 35 34 33 31 27 26 28 27 24 26 20 23 23 23 23 23 24 27 30 31 31 32 32 32 32 33 33
26 25 27 27 28 30 32 32 31 31 33 31 32 31 30 29 29 27 26 25 24 23 21 21 19 19 20 24 25 28 28 30 30 31 32 32 33 33
23 24 25 26 28 29 31 30 31 30 30 32 35 36 34 27 26 27 26 25 24 21 22 23 20 19 20 20 23 26 27 30 32 31 31 32 33 33
23 25 25 26 27 27 28 28 28 29 31 31 32 33 33 29 26 26 27 27 25 24 24 28 25 21 21 21 20 23 27 30 31 32 32 32 32 34
23 25 25 26 27 28 29 29 30 32 30 31 31 33 32 30 28 28 27 26 26 27 22 26 25 22 24 23 21 23 24 25 30 32 33 32 32 33
22 24 24 26 29 30 30 31 33 34 31 31 32 34 34 31 29 29 27 27 26 26 25 27 26 24 23 22 22 23 23 24 28 31 32 32 33 33
22 24 26 26 26 27 29 30 32 32 32 32 32 33 33 30 30 30 28 27 26 25 23 24 26 26 25 23 24 22 25 26 30 31 28 29 30 32
19 22 22 24 24 24 25 27 29 32 34 34 33 33 33 32 31 30 30 28 25 24 22 23 19 22 21 23 26 24 27 26 30 26 27 28 28 30
18 18 20 21 21 20 22 24 25 27 33 33 34 32 32 30 31 30 29 28 26 24 22 23 20 19 16 20 23 26 23 24 25 26 27 28 27 28
15 16 17 18 18 18 19 21 23 24 26 33 31 31 32 31 31 29 29 28 26 23 20 20 17 17 17 19 21 25 27 26 26 25 25 27 28 29
13 13 15 14 15 16 20 20 21 23 25 26 32 31 32 30 30 30 29 28 27 24 19 17 16 21 18 17 21 23 30 29 27 26 24 24 24 27
13 12 12 14 16 17 19 20 19 19 21 24 26 32 32 31 30 30 30 27 25 22 18 18 18 16 16 14 16 22 24 28 28 27 26 24 24 21
13 12 14 14 15 16 14 17 16 17 18 21 23 23 24 30 31 30 29 27 26 20 18 17 17 16 14 13 16 17 21 23 22 24 28 26 25 25

GFSNE_sfc_dewp_075.txt.gz
Dewpoint
45 44 44 45 45 45 42 36 34 28 29 30 30 31 32 33 36 39 35 40 40 40 39 39 36 34 34 31 30 29 30 30 32 33 33 34 34 34
44 44 44 45 45 43 40 38 35 33 30 31 31 31 31 29 33 37 33 37 40 39 38 38 37 36 35 32 30 29 29 29 30 31 32 32 33 33
44 43 43 43 42 41 38 36 34 33 30 31 31 31 30 30 30 31 33 35 35 38 37 37 38 38 37 35 32 30 29 29 30 30 31 31 32 32
42 42 42 41 40 39 37 35 34 33 32 30 30 30 30 31 30 30 30 30 30 33 38 38 37 36 36 35 34 33 32 30 31 30 30 31 31 30
42 42 42 41 39 37 36 36 35 33 33 31 30 31 30 30 29 29 29 29 29 33 35 35 37 37 36 35 34 34 34 33 33 33 31 31 31 31
43 42 41 40 38 36 34 33 33 32 32 31 31 29 28 29 28 28 28 28 27 26 29 27 30 32 36 36 35 35 34 34 34 33 33 33 33 32
41 40 39 39 39 38 35 33 33 31 30 30 30 29 27 26 25 27 27 26 27 28 26 25 23 23 24 29 33 35 35 35 34 34 34 33 33 32
32 32 32 33 33 34 32 32 32 29 29 30 31 31 33 31 27 29 29 28 27 28 26 24 22 22 22 24 27 31 32 31 32 34 33 32 32 33
30 30 29 27 30 28 29 28 28 30 29 29 29 30 31 33 34 32 29 29 30 30 25 22 22 21 23 21 29 31 31 32 32 32 32 32 33 33
28 28 26 25 26 27 25 24 24 24 24 25 27 28 31 33 34 35 34 33 31 30 25 21 21 21 23 25 29 32 30 31 31 31 32 32 32 33
25 25 23 23 28 28 25 23 21 21 22 25 27 28 31 32 31 30 29 31 29 26 24 23 22 22 23 23 24 28 30 31 31 32 31 31 31 31
22 22 25 25 27 25 22 22 23 23 25 26 26 26 27 26 28 29 31 28 29 26 25 25 21 21 19 22 22 22 22 25 28 29 31 30 30 29
22 22 22 23 22 23 25 25 25 27 27 29 28 27 27 27 27 29 31 31 29 28 26 24 22 21 21 21 22 22 22 23 23 25 27 28 29 30
21 22 22 21 23 24 25 26 25 25 27 27 27 27 27 27 27 27 31 32 32 29 27 25 20 22 21 20 20 23 22 23 22 24 25 27 29 32
22 20 20 22 23 24 23 20 21 22 22 23 23 23 26 30 29 29 33 32 32 28 26 25 24 24 23 20 19 21 20 23 22 20 22 25 25 26
21 20 20 22 22 21 20 20 20 19 19 20 21 22 24 30 30 32 31 30 29 27 27 27 25 25 24 23 22 21 22 19 21 21 25 30 27 26
17 17 19 20 19 18 18 17 17 17 16 17 17 19 21 22 28 30 31 30 27 24 24 25 26 26 25 24 22 22 22 22 22 24 25 23 24 25
17 15 14 9 11 15 15 15 14 13 14 15 15 16 18 21 22 30 30 28 25 23 24 25 25 25 25 26 26 23 20 21 19 24 23 21 24 25
14 13 4 1 5 14 14 13 12 13 15 15 14 14 17 20 18 26 30 29 27 26 26 25 25 24 21 18 23 28 23 24 22 20 22 21 21 24
15 10 5 4 8 12 12 12 12 12 12 12 12 12 14 17 16 16 27 27 27 26 26 26 25 23 21 18 17 18 26 21 19 16 18 20 23 26
13 13 7 9 10 11 6 6 3 7 8 8 10 11 11 14 13 14 16 21 24 27 25 25 24 24 24 20 14 12 16 26 25 22 21 17 17 20
9 11 11 9 6 7 1 4 9 5 6 8 7 10 9 11 12 12 13 15 18 27 26 25 22 21 21 18 17 9 16 22 27 29 28 24 16 12
6 8 6 2 2 0 6 8 6 1 6 7 8 8 6 7 11 11 11 13 16 26 25 25 24 22 20 18 19 18 16 13 21 20 19 27 28 27